Weather History for Whiteman AFB, MO

Change the Weather History Date:

Wednesday, January 16, 2013

  Actual Average Record
Temperature  
Mean Temperature 26 °F -  
Max Temperature 40 °F 37 °F 67 °F (2012)
Min Temperature 11 °F 20 °F 0 °F (2009)
Degree Days  
Heating Degree Days 40    
Moisture  
Dew Point 18 °F    
Average Humidity 71    
Maximum Humidity 90    
Minimum Humidity 48    
Precipitation  
Precipitation 0.00 in - - ()
Sea Level Pressure  
Sea Level Pressure 30.13 in    
Wind  
Wind Speed 8 mph (SW)    
Max Wind Speed 21 mph    
Max Gust Speed -    
Visibility 10 miles    
Events      
Averages and records for this station are not official NWS values.
T = Trace of Precipitation, MM = Missing Value Source: NWS Daily Summary

Daily Weather History Graph

Daily Weather History Graph

Search for Another Location

Airport:

Trip Planner

Search our weather history database for the weather conditions in past years. The results will help you decide how hot, cold, wet, or windy it might be!

Date:

Astronomy

Jan. 16, 2013 Rise Set
Actual Time 7:30 AM CST 5:18 PM CST
Civil Twilight 7:01 AM CST 5:47 PM CST
Nautical Twilight 6:28 AM CST 6:19 PM CST
Astronomical Twilight 5:56 AM CST 6:51 PM CST
Moon 10:11 AM CST (1/16) 11:06 PM CST (1/16)
Length of Visible Light 10h 45m
Length of Day
9h 47m
Waxing Crescent, 28% of the Moon is Illuminated
Jan 16
Waxing Crescent
Jan 18
First Quarter
Jan 26
Full
Feb 3
Last Quarter
Feb 10
New

Hourly Weather History & Observations

Time (CST) Temp. Windchill Dew Point Humidity Pressure Visibility Wind Dir Wind Speed Gust Speed Precip Events Conditions
12:55 AM 11.5 °F 5.3 °F 9.0 °F 90% 30.22 in 10.0 mi SW 3.5 mph - N/A   Clear
1:55 AM 12.0 °F 2.7 °F 8.6 °F 86% 30.21 in 10.0 mi SSW 5.8 mph - N/A   Clear
2:55 AM 11.8 °F 1.3 °F 8.2 °F 85% 30.20 in 10.0 mi SSW 6.9 mph - N/A   Clear
3:55 AM 13.1 °F 4.0 °F 9.0 °F 84% 30.17 in 10.0 mi SW 5.8 mph - N/A   Clear
4:55 AM 16.3 °F 6.7 °F 11.7 °F 82% 30.14 in 10.0 mi WSW 6.9 mph - N/A   Clear
5:55 AM 13.3 °F 2.0 °F 9.3 °F 84% 30.14 in 10.0 mi SSW 8.1 mph - N/A   Clear
6:55 AM 14.7 °F 3.8 °F 9.7 °F 80% 30.14 in 10.0 mi SSW 8.1 mph - N/A   Clear
7:55 AM 14.5 °F 1.9 °F 11.3 °F 87% 30.12 in 10.0 mi SSW 10.4 mph - N/A   Clear
8:55 AM 19.8 °F 8.3 °F 14.5 °F 80% 30.15 in 10.0 mi SSW 10.4 mph - N/A   Clear
9:55 AM 27.0 °F 16.1 °F 16.0 °F 63% 30.15 in 10.0 mi SW 12.7 mph - N/A   Clear
10:55 AM 32.7 °F 22.5 °F 18.3 °F 55% 30.13 in 10.0 mi SW 15.0 mph - N/A   Clear
11:55 AM 35.2 °F 25.4 °F 20.5 °F 55% 30.09 in 10.0 mi SW 16.1 mph - N/A   Clear
12:55 PM 38.1 °F 27.9 °F 20.8 °F 50% 30.07 in 10.0 mi SW 20.7 mph - N/A   Clear
1:55 PM 40.1 °F 31.3 °F 22.3 °F 49% 30.05 in 10.0 mi SW 17.3 mph - N/A   Scattered Clouds
2:55 PM 40.3 °F 31.3 °F 21.9 °F 48% 30.06 in 10.0 mi WSW 18.4 mph - N/A   Overcast
3:55 PM 39.9 °F 32.9 °F 23.5 °F 52% 30.08 in 10.0 mi WSW 11.5 mph - N/A   Overcast
4:55 PM 39.4 °F 33.8 °F 23.5 °F 53% 30.10 in 10.0 mi WSW 8.1 mph - N/A   Partly Cloudy
5:55 PM 36.3 °F 30.8 °F 23.7 °F 60% 30.12 in 10.0 mi SW 6.9 mph - N/A   Clear
6:55 PM 31.1 °F 24.5 °F 24.8 °F 77% 30.14 in 10.0 mi SSW 6.9 mph - N/A   Clear
7:55 PM 32.0 °F 26.4 °F 24.3 °F 73% 30.14 in 10.0 mi SW 5.8 mph - N/A   Clear
8:55 PM 31.5 °F 25.8 °F 24.1 °F 74% 30.14 in 10.0 mi West 5.8 mph - N/A   Clear
9:55 PM 31.8 °F 26.2 °F 24.1 °F 73% 30.14 in 10.0 mi WSW 5.8 mph - N/A   Clear
10:55 PM 29.8 °F 23.9 °F 23.9 °F 79% 30.15 in 10.0 mi SW 5.8 mph - N/A   Clear
11:55 PM 32.5 °F 25.5 °F 25.5 °F 75% 30.17 in 10.0 mi West 8.1 mph - N/A   Clear